DW4379 Weather Reports


Display with metric or nautical units.
time (UTC)temp
F
wind
direction
speed
MPH
gust
MPH
rain 1hr
in
rain 24hr
in
rain mn
in
humidity
%
barometer
mb
20260505020004 70 195 1.0 4.0 0.00 0.00 0.00 55 1002.3
20260505015503 70 196 1.0 3.0 0.00 0.00 0.00 56 1002.2
20260505015217 70 189 0.0 3.0 0.00 0.00 0.00 57 1002.2
20260505014503 70 226 0.0 2.0 0.00 0.00 0.00 56 1002.2
20260505014003 70 226 0.0 2.0 0.00 0.00 0.00 56 1002.1
20260505013503 71 218 0.0 2.0 0.00 0.00 0.00 56 1002.0
20260505013003 71 209 0.0 3.0 0.00 0.00 0.00 56 1002.2
20260505012503 71 208 0.0 3.0 0.00 0.00 0.00 55 1002.1
20260505012003 71 194 0.0 2.0 0.00 0.00 0.00 55 1002.1
20260505011503 71 200 0.0 2.0 0.00 0.00 0.00 55 1002.0
20260505011003 72 216 0.0 3.0 0.00 0.00 0.00 55 1001.9
20260505010503 72 220 1.0 3.0 0.00 0.00 0.00 55 1001.9
20260505010004 72 227 0.0 3.0 0.00 0.00 0.00 54 1001.8
20260505005503 72 193 0.0 3.0 0.00 0.00 0.00 54 1001.7
20260505005004 72 192 0.0 3.0 0.00 0.00 0.00 53 1001.6
20260505004503 73 218 0.0 3.0 0.00 0.00 0.00 53 1001.5
20260505004003 73 219 1.0 4.0 0.00 0.00 0.00 52 1001.6
20260505003718 73 222 1.0 4.0 0.00 0.00 0.00 52 1001.6
20260505003003 73 228 1.0 4.0 0.00 0.00 0.00 52 1001.5
20260505002503 74 243 1.0 4.0 0.00 0.00 0.00 51 1001.6
20260505002217 74 236 1.0 3.0 0.00 0.00 0.00 51 1001.5
20260505001503 74 210 1.0 3.0 0.00 0.00 0.00 50 1001.6
20260505001217 74 214 1.0 4.0 0.00 0.00 0.00 50 1001.6
20260505000503 74 225 1.0 5.0 0.00 0.00 0.00 49 1001.5
20260505000004 75 192 1.0 6.0 0.00 0.00 0.00 49 1001.5
20260504235503 75 199 1.0 8.0 0.00 0.00 0.00 50 1001.4
20260504235003 75 215 1.0 8.0 0.00 0.00 0.00 50 1001.3
20260504234503 75 209 1.0 3.0 0.00 0.00 0.00 50 1001.3
20260504234003 76 208 1.0 5.0 0.00 0.00 0.00 50 1001.5
20260504233503 76 194 1.0 5.0 0.00 0.00 0.00 50 1001.6
20260504233219 76 195 1.0 5.0 0.00 0.00 0.00 49 1001.6
20260504232503 76 207 1.0 4.0 0.00 0.00 0.00 51 1001.8
20260504232219 76 218 1.0 4.0 0.00 0.00 0.00 50 1001.7
20260504231504 76 241 1.0 3.0 0.00 0.00 0.00 50 1001.8
20260504231003 76 166 1.0 3.0 0.00 0.00 0.00 50 1001.9
20260504230717 76 172 1.0 3.0 0.00 0.00 0.00 51 1001.9
20260504230004 76 159 1.0 4.0 0.00 0.00 0.00 49 1002.0
20260504225503 76 159 1.0 5.0 0.00 0.00 0.00 50 1001.8
20260504225003 76 179 2.0 7.0 0.00 0.00 0.00 49 1001.9
20260504224503 76 157 2.0 8.0 0.00 0.00 0.00 49 1002.0
20260504224003 76 182 2.0 8.0 0.00 0.00 0.00 50 1002.1
20260504223503 76 227 2.0 8.0 0.00 0.00 0.00 49 1002.2
20260504223003 76 245 1.0 6.0 0.00 0.00 0.00 49 1002.2
20260504222504 76 219 1.0 6.0 0.00 0.00 0.00 50 1002.3
20260504222004 76 214 2.0 8.0 0.00 0.00 0.00 49 1002.5
20260504221503 76 224 2.0 8.0 0.00 0.00 0.00 49 1002.5
20260504221003 76 231 2.0 13.0 0.00 0.00 0.00 49 1002.6
20260504220503 76 235 2.0 13.0 0.00 0.00 0.00 49 1002.7
20260504220004 77 219 2.0 9.0 0.00 0.00 0.00 49 1002.7
20260504215503 77 208 3.0 9.0 0.00 0.00 0.00 49 1002.8
20260504215003 77 208 2.0 10.0 0.00 0.00 0.00 50 1002.7
20260504214503 77 210 3.0 10.0 0.00 0.00 0.00 51 1002.8
20260504214003 77 203 3.0 10.0 0.00 0.00 0.00 48 1002.8
20260504213503 77 209 2.0 6.0 0.00 0.00 0.00 50 1003.0
20260504213003 77 219 2.0 11.0 0.00 0.00 0.00 50 1002.9
20260504212503 77 204 2.0 11.0 0.00 0.00 0.00 51 1003.0
20260504212218 77 216 1.0 6.0 0.00 0.00 0.00 51 1003.1
20260504211503 77 246 2.0 6.0 0.00 0.00 0.00 50 1003.0
20260504211003 76 250 3.0 9.0 0.00 0.00 0.00 49 1003.1
20260504210717 76 252 2.0 9.0 0.00 0.00 0.00 50 1003.2
20260504210004 76 249 1.0 7.0 0.00 0.00 0.00 50 1003.2
20260504205503 76 235 1.0 9.0 0.00 0.00 0.00 54 1003.3
20260504205003 76 236 2.0 9.0 0.00 0.00 0.00 55 1003.3
20260504204503 76 243 1.0 4.0 0.00 0.00 0.00 56 1003.5
20260504204003 75 227 2.0 6.0 0.00 0.00 0.00 58 1003.6
20260504203503 75 225 2.0 7.0 0.00 0.00 0.00 57 1003.4
20260504203003 74 205 1.0 7.0 0.00 0.00 0.00 58 1003.6
20260504202718 74 201 2.0 6.0 0.00 0.00 0.00 58 1003.5
20260504202004 74 243 2.0 7.0 0.00 0.00 0.00 59 1003.9
20260504201718 74 251 1.0 7.0 0.00 0.00 0.00 59 1003.9
20260504201003 74 200 1.0 4.0 0.00 0.00 0.00 64 1004.1
20260504200503 74 214 0.0 3.0 0.00 0.00 0.00 67 1004.4
20260504200004 74 184 0.0 3.0 0.00 0.00 0.00 67 1004.2
20260504195504 74 154 1.0 4.0 0.00 0.00 0.00 68 1004.1
20260504195003 74 191 1.0 4.0 0.00 0.00 0.00 70 1004.6
20260504194718 74 203 1.0 4.0 0.00 0.00 0.00 71 1004.7
20260504194003 73 191 0.0 2.0 0.00 0.00 0.00 71 1004.9
20260504193504 73 145 0.0 3.0 0.00 0.00 0.00 73 1004.8
20260504193218 73 138 1.0 3.0 0.00 0.00 0.00 74 1004.8
20260504192503 72 111 2.0 5.0 0.00 0.00 0.00 75 1004.6
20260504192003 71 108 2.0 6.0 0.00 0.00 0.00 76 1004.6
20260504191503 70 116 2.0 6.0 0.00 0.00 0.00 77 1004.7
20260504191003 70 121 2.0 6.0 0.00 0.00 0.00 77 1004.8
20260504190504 70 110 2.0 6.0 0.00 0.00 0.00 77 1004.8
20260504190004 69 101 2.0 5.0 0.00 0.00 0.00 80 1004.8
20260504185503 69 109 1.0 3.0 0.00 0.00 0.00 80 1004.8
20260504185003 69 122 0.0 3.0 0.00 0.00 0.00 81 1004.9
20260504184718 69 127 0.0 3.0 0.00 0.00 0.00 79 1004.9
20260504184003 69 118 1.0 4.0 0.00 0.00 0.00 79 1005.0
20260504183718 68 119 1.0 4.0 0.00 0.00 0.00 79 1005.1
20260504183003 68 121 1.0 3.0 0.00 0.00 0.00 81 1005.1
20260504182503 68 110 2.0 5.0 0.00 0.00 0.00 83 1005.0
20260504182003 67 109 2.0 5.0 0.00 0.00 0.00 84 1004.9
20260504181503 66 126 1.0 3.0 0.00 0.00 0.00 86 1004.9
20260504181004 65 132 1.0 4.0 0.00 0.00 0.00 88 1005.3
20260504180503 64 121 1.0 5.0 0.00 0.00 0.00 88 1005.5
20260504180003 64 119 1.0 5.0 0.00 0.00 0.00 90 1005.4
20260504175503 63 124 1.0 3.0 0.00 0.00 0.00 92 1005.5
20260504175004 62 142 0.0 2.0 0.00 0.00 0.00 92 1005.6
20260504174503 61 130 0.0 2.0 0.00 0.00 0.00 92 1005.9
20260504174003 60 127 0.0 2.0 0.00 0.00 0.00 92 1006.1
20260504173504 60 104 0.0 1.0 0.00 0.00 0.00 91 1006.5
20260504173003 60 104 0.0 1.0 0.00 0.00 0.00 91 1006.6
20260504172504 60 0 0.0 0.0 0.00 0.00 0.00 91 1006.9
20260504172003 60 128 0.0 1.0 0.00 0.00 0.00 90 1007.0
20260504171503 61 128 0.0 1.0 0.00 0.00 0.00 89 1006.7
20260504171003 61 0 0.0 0.0 0.00 0.00 0.00 89 1006.8
20260504170503 61 0 0.0 0.0 0.00 0.00 0.00 88 1006.6
20260504170218 61 0 0.0 0.0 0.00 0.00 0.00 88 1006.5
20260504151004 62 188 0.0 6.0 0.00 0.00 0.00 78 1006.5
20260504150503 62 139 0.0 2.0 0.00 0.00 0.00 77 1006.6
20260504141003 62 164 1.0 3.0 0.00 0.00 0.00 77 1006.6
20260504140503 62 215 1.0 3.0 0.00 0.00 0.00 78 1006.7
20260504140217 62 212 1.0 3.0 0.00 0.00 0.00 78 1006.7
20260504130503 59 0 0.0 0.0 0.00 0.00 0.00 85 1006.8
20260504130217 59 115 0.0 1.0 0.00 0.00 0.00 85 1007.0
20260504110503 58 0 0.0 0.0 0.00 0.00 0.00 82 1005.7
20260504082003 56 216 0.0 3.0 0.00 0.00 0.00 79 1007.1
20260504081503 55 206 0.0 2.0 0.00 0.00 0.00 80 1007.0
20260504081003 55 216 0.0 1.0 0.00 0.00 0.00 80 1007.0
20260504080503 55 236 0.0 2.0 0.00 0.00 0.00 80 1007.1
20260504050503 57 0 0.0 0.0 0.00 0.00 0.00 67 1008.7
20260504050003 57 0 0.0 0.0 0.00 0.00 0.00 67 1008.7
20260504045503 57 0 0.0 0.0 0.00 0.00 0.00 66 1008.7
20260504045003 57 0 0.0 0.0 0.00 0.00 0.00 67 1008.7
20260504044504 57 0 0.0 0.0 0.00 0.00 0.00 66 1008.6
20260504044003 57 0 0.0 0.0 0.00 0.00 0.00 66 1008.6
20260504043718 58 0 0.0 0.0 0.00 0.00 0.00 66 1008.6
20260504043217 58 0 0.0 0.0 0.00 0.00 0.00 65 1008.7
20260504042503 58 235 0.0 1.0 0.00 0.00 0.00 65 1008.7
20260504042003 58 235 0.0 1.0 0.00 0.00 0.00 64 1008.9
20260504041718 58 235 0.0 1.0 0.00 0.00 0.00 64 1008.9
20260504041003 58 0 0.0 0.0 0.00 0.00 0.00 64 1008.9
20260504040718 58 0 0.0 0.0 0.00 0.00 0.00 64 1008.9
20260504040006 59 236 0.0 1.0 0.00 0.00 0.00 63 1009.0
20260504035503 59 232 0.0 1.0 0.00 0.00 0.00 63 1009.0
20260504035217 59 230 0.0 3.0 0.00 0.00 0.00 63 1009.0
20260504034503 59 228 0.0 3.0 0.00 0.00 0.00 62 1009.0
20260504034003 59 0 0.0 0.0 0.00 0.00 0.00 62 1009.1
20260504033504 60 0 0.0 0.0 0.00 0.00 0.00 62 1009.1
20260504033003 60 0 0.0 0.0 0.00 0.00 0.00 61 1009.1
20260504032503 60 105 0.0 2.0 0.00 0.00 0.00 61 1009.3
20260504032003 60 105 0.0 2.0 0.00 0.00 0.00 61 1009.2
20260504031503 60 105 0.0 2.0 0.00 0.00 0.00 60 1009.2
20260504031217 60 105 0.0 2.0 0.00 0.00 0.00 60 1009.3
20260504030503 60 129 0.0 1.0 0.00 0.00 0.00 60 1009.4
20260504030003 60 129 0.0 1.0 0.00 0.00 0.00 60 1009.4
20260504025503 60 132 0.0 2.0 0.00 0.00 0.00 61 1009.5
20260504025003 60 126 0.0 3.0 0.00 0.00 0.00 60 1009.4
20260504024718 60 123 0.0 3.0 0.00 0.00 0.00 60 1009.4
20260504024003 60 131 0.0 2.0 0.00 0.00 0.00 60 1009.5
20260504023503 60 130 0.0 1.0 0.00 0.00 0.00 60 1009.4
20260504023003 60 130 0.0 1.0 0.00 0.00 0.00 61 1009.4
20260504022718 60 0 0.0 0.0 0.00 0.00 0.00 60 1009.4
20260504022003 60 240 0.0 1.0 0.00 0.00 0.00 61 1009.4
20260504021504 61 235 0.0 3.0 0.00 0.00 0.00 61 1009.4
20260504021003 61 242 0.0 3.0 0.00 0.00 0.00 60 1009.3
20260504020503 61 246 0.0 1.0 0.00 0.00 0.00 60 1009.3